GFSNGP_prec_kuchsnow_189.txt.gz
Snowfall_Accumulation
0.0 0.0 0.1 0.0 0.0 0.1 1.4 1.7 5.3 0.2 0.3 0.3 0.0 0.3 0.1 0.0 0.0 0.1 0.4 0.3 0.0 0.8 1.2 0.6 1.9 1.1 1.4 1.0 0.5 0.6 0.2 0.3 0.3 0.0 0.1 0.2 0.2 0.5 1.0 0.8 0.5 0.4 0.8 0.7
0.9 0.0 0.0 0.3 0.1 0.2 0.1 0.1 0.4 0.3 0.6 0.1 0.0 0.0 0.0 0.0 0.0 0.0 0.1 0.0 0.0 0.0 0.0 0.0 0.2 0.2 0.1 0.3 0.1 0.0 0.1 0.0 0.1 0.0 0.0 0.1 0.1 0.1 0.1 0.8 0.8 0.7 0.5 0.4
5.0 0.0 0.1 2.1 0.2 0.0 1.3 1.9 2.1 1.0 0.8 0.0 0.0 0.0 0.3 0.0 0.0 0.0 0.0 0.0 0.0 0.0 0.0 0.0 0.0 0.0 0.1 0.0 0.0 0.0 0.0 0.0 0.0 0.0 0.0 0.0 0.0 0.0 0.1 0.0 0.1 1.2 1.2 1.0
7.4 0.6 11.7 0.1 0.0 0.0 1.4 0.9 0.0 0.1 0.0 0.0 0.0 0.2 0.3 0.1 0.0 0.0 0.0 0.0 0.0 0.0 0.0 0.0 0.0 0.0 0.0 0.0 0.0 0.0 0.0 0.0 0.0 0.0 0.0 0.3 0.9 0.7 0.6 0.6 0.3 0.0 0.1 0.2
11.2 5.0 0.4 0.4 0.0 0.3 1.1 1.1 0.3 0.4 0.1 0.0 0.0 0.3 1.3 0.0 0.0 0.0 0.0 0.0 0.0 0.0 0.0 0.0 0.0 0.0 0.0 0.0 0.0 0.0 0.0 0.5 0.6 0.4 0.6 2.5 2.1 1.5 1.1 0.5 0.1 0.0 0.0 0.0
7.8 11.9 6.0 1.7 0.3 0.0 0.0 5.1 1.5 0.5 0.2 0.2 0.0 0.5 0.9 0.1 0.0 0.0 0.0 0.0 0.0 0.0 0.0 0.0 0.0 0.0 0.0 0.0 0.4 0.0 2.0 2.4 0.8 3.0 3.4 3.0 2.2 1.6 0.7 0.3 0.1 0.0 0.1 0.0
13.1 19.9 4.6 1.0 0.0 0.0 2.0 7.1 1.0 0.7 1.4 2.9 2.6 2.4 0.7 0.1 0.0 0.0 0.0 0.0 0.0 0.0 0.0 0.0 0.0 0.0 0.0 0.2 0.1 1.9 2.2 4.2 4.4 4.0 3.4 2.4 1.7 1.0 0.5 0.2 0.0 0.1 0.1 0.0
11.7 17.2 14.6 0.5 0.0 3.5 3.0 0.9 1.3 1.6 2.2 4.9 1.4 0.2 0.0 0.0 0.0 0.0 0.0 0.0 0.0 0.0 0.0 0.0 0.0 0.0 0.1 0.1 2.0 2.8 3.2 3.3 3.0 2.4 1.7 1.4 1.0 0.6 0.2 0.2 0.1 0.0 0.2 0.2
7.2 6.5 2.0 1.2 1.8 1.6 1.6 2.1 2.1 1.9 1.2 0.2 0.2 0.0 0.0 0.0 0.0 0.0 0.0 0.0 0.0 0.0 0.0 0.0 0.0 0.0 0.1 0.0 1.0 1.7 1.7 1.8 1.5 1.1 0.9 0.6 0.3 0.2 0.1 0.1 0.2 0.4 0.5 0.5
6.1 3.2 1.2 2.1 0.8 0.9 1.2 1.5 0.5 0.0 0.0 0.0 0.0 0.0 0.0 0.0 0.0 0.0 0.0 0.0 0.0 0.0 0.0 0.0 0.0 0.0 0.0 0.9 2.0 1.9 1.7 1.4 1.1 0.8 0.5 0.2 0.1 0.1 0.2 0.9 0.8 1.0 2.0 3.1
7.9 5.9 0.8 0.9 1.5 1.8 0.8 0.3 0.3 0.0 0.0 0.0 0.0 0.0 0.0 0.0 0.0 0.0 0.0 0.0 0.0 0.1 0.0 0.0 0.0 0.5 0.6 1.7 1.5 1.5 1.4 0.9 1.9 0.5 0.4 0.2 0.1 0.2 0.6 2.0 3.2 4.4 4.6 6.8
10.8 5.4 6.3 4.4 5.5 1.8 1.1 0.2 0.0 0.0 0.0 0.0 0.0 0.0 0.0 0.0 0.1 0.1 0.0 0.0 0.0 0.0 0.1 0.2 0.1 0.6 1.3 1.1 0.6 0.8 2.0 2.7 5.3 3.0 8.1 6.0 5.9 6.8 5.6 5.2 5.3 9.3 12.2 13.7
2.2 1.8 1.6 1.6 0.0 0.0 0.4 1.1 0.7 0.0 0.2 0.0 0.0 0.0 0.0 0.1 0.1 0.7 0.7 0.5 0.9 0.6 0.7 1.1 1.0 0.9 1.1 0.9 1.2 1.2 2.1 2.6 4.7 7.2 10.6 13.4 15.7 12.2 13.4 14.8 14.3 15.1 12.0 11.0
0.0 0.0 0.0 0.0 0.3 0.0 0.0 0.0 0.4 0.0 0.0 0.0 0.0 0.0 0.0 0.1 1.3 3.0 3.6 4.2 3.4 1.7 2.8 2.5 0.8 2.3 5.3 4.6 5.5 6.1 6.2 9.8 11.3 14.1 19.3 21.4 21.1 23.1 23.2 19.7 15.1 17.7 18.0 19.0
0.0 0.0 0.1 0.0 0.0 0.0 0.0 0.0 0.0 0.0 0.0 0.0 0.0 0.0 0.0 0.6 2.6 3.4 9.9 11.3 8.3 11.6 15.0 13.5 12.3 18.5 17.8 15.6 16.3 17.8 15.5 17.6 18.4 20.9 20.8 21.7 23.3 23.3 22.0 21.3 20.6 19.4 19.1 17.2
0.0 0.0 0.0 0.0 0.0 0.0 0.0 0.0 0.0 0.0 0.0 0.0 0.0 0.0 0.0 1.4 3.3 4.4 7.3 11.3 12.8 18.6 22.6 21.9 22.9 24.5 19.8 17.5 15.3 15.6 15.5 14.5 12.2 12.2 15.3 17.9 18.2 18.8 20.2 20.2 19.9 20.7 20.5 21.4
0.0 0.0 0.0 0.0 0.0 0.0 0.0 0.0 0.0 0.0 0.0 0.0 0.1 0.1 0.2 0.8 3.0 6.3 11.5 12.9 15.5 17.8 18.7 16.6 17.3 13.2 10.6 10.0 9.2 8.9 9.3 9.3 8.9 8.7 9.1 10.3 13.2 14.9 16.6 16.7 17.5 18.6 19.9 20.2
0.0 0.0 0.0 0.1 0.0 0.0 0.0 0.0 0.0 0.0 0.1 0.2 0.5 1.2 2.1 4.5 8.3 14.2 18.9 18.8 13.0 11.2 12.7 12.2 9.2 6.9 6.2 6.6 5.7 5.2 5.4 5.4 6.5 7.9 7.4 8.3 10.5 11.2 11.1 11.1 12.0 12.5 14.3 15.3
0.1 0.2 0.1 0.0 0.0 0.0 0.0 0.1 0.3 0.3 1.6 2.2 3.9 7.8 9.5 11.7 11.9 11.2 11.0 11.2 11.7 9.7 11.0 6.7 4.9 4.0 3.6 3.9 3.2 3.7 3.9 4.4 4.3 4.9 5.5 5.5 7.0 8.1 10.4 9.5 9.5 10.4 11.3 12.2
0.6 0.6 0.2 0.0 0.0 0.0 0.4 1.2 1.8 3.1 5.3 5.0 5.8 7.9 7.8 9.1 7.9 8.2 7.1 7.8 7.0 6.3 4.0 4.3 3.4 3.4 2.9 2.2 1.3 1.5 2.0 2.6 3.4 4.4 5.3 5.8 7.3 7.9 8.1 6.6 8.5 9.2 9.4 10.5
0.4 0.1 0.0 0.1 0.8 1.6 2.5 4.1 3.9 6.1 9.0 7.3 5.4 7.2 8.9 12.0 11.0 9.7 7.3 4.5 5.5 3.8 3.4 2.9 2.1 1.9 0.9 1.1 1.2 1.6 2.6 3.1 3.6 5.2 5.2 5.6 5.7 5.9 5.9 6.5 7.3 7.0 8.8 9.4
5.2 5.6 4.8 4.3 4.5 6.4 7.7 7.5 6.2 7.1 7.5 8.5 9.6 9.3 9.1 11.1 10.5 8.8 6.6 5.6 4.9 3.7 3.0 2.6 1.8 1.6 1.2 1.3 1.8 2.5 2.5 2.8 2.7 2.8 3.3 4.1 4.7 5.2 5.2 5.5 6.5 6.5 6.8 7.1
11.7 11.6 11.0 10.0 9.0 10.3 11.5 10.6 10.8 9.0 9.8 10.0 9.7 9.7 8.3 9.3 7.5 5.5 5.1 4.2 2.8 2.8 2.4 2.1 1.7 1.6 1.5 2.5 3.3 3.3 3.7 2.7 2.9 3.1 3.7 3.6 4.3 4.7 4.6 4.6 5.3 5.5 6.2 5.6
10.4 10.2 12.2 11.3 9.7 7.6 8.9 11.7 10.0 9.7 8.8 10.2 9.1 8.5 6.7 6.2 6.4 4.6 3.4 3.2 2.8 2.6 2.1 2.5 1.8 1.6 1.9 2.9 3.2 2.8 3.5 2.8 2.5 2.8 2.7 1.8 3.3 2.8 3.1 3.5 3.6 3.3 3.7 3.7
9.1 8.0 7.6 7.8 7.5 8.7 7.8 8.0 7.3 8.6 8.2 10.1 9.0 7.4 5.4 3.8 3.1 4.7 3.2 3.8 2.9 2.2 2.6 2.5 1.5 1.7 2.4 3.2 3.2 2.7 3.3 2.9 2.5 3.3 3.4 3.2 2.9 2.8 2.8 2.5 2.6 2.6 2.2 2.4
9.2 8.9 8.0 7.2 7.4 7.1 6.5 6.4 7.4 9.4 8.1 8.6 8.1 6.5 5.7 4.5 4.2 3.6 2.9 2.5 1.5 1.6 2.7 3.7 2.5 2.1 2.9 2.8 2.9 2.6 2.9 2.7 2.4 2.7 2.9 2.7 2.8 2.6 2.3 2.4 2.1 2.0 2.0 1.9
8.1 7.5 5.5 6.0 6.6 6.5 6.2 6.4 6.3 7.7 7.2 6.7 7.6 6.0 5.0 5.0 4.6 4.3 3.1 3.3 3.1 3.2 3.4 3.6 2.9 2.2 1.8 2.7 3.3 3.0 2.8 2.4 1.2 2.0 2.1 2.5 2.9 2.9 2.9 3.0 2.9 2.7 2.6 3.0

GFSNGP_prec_kuchsnow_192.txt.gz
Snowfall_Accumulation
0.0 0.0 0.1 0.0 0.0 0.1 1.4 1.7 5.6 0.2 0.3 0.3 0.0 0.3 0.1 0.0 0.0 0.1 0.4 0.3 0.0 0.8 1.2 0.6 1.9 1.1 1.4 1.0 0.5 0.6 0.2 0.3 0.3 0.0 0.1 0.2 0.2 0.5 1.0 0.8 0.5 0.4 0.8 0.7
0.9 0.0 0.0 0.3 0.1 0.2 0.1 0.1 0.4 0.3 0.6 0.1 0.0 0.0 0.0 0.0 0.0 0.0 0.1 0.0 0.0 0.0 0.0 0.0 0.2 0.2 0.1 0.3 0.1 0.0 0.1 0.0 0.1 0.0 0.0 0.1 0.1 0.1 0.1 0.8 0.8 0.7 0.5 0.4
5.1 0.0 0.1 2.2 0.2 0.0 1.3 1.9 2.1 1.0 0.8 0.0 0.0 0.0 0.3 0.0 0.0 0.0 0.0 0.0 0.0 0.0 0.0 0.0 0.0 0.0 0.1 0.0 0.0 0.0 0.0 0.0 0.0 0.0 0.0 0.0 0.0 0.0 0.1 0.0 0.1 1.2 1.2 1.0
7.6 0.6 12.2 0.1 0.0 0.0 1.4 0.9 0.0 0.1 0.0 0.0 0.0 0.2 0.3 0.1 0.0 0.0 0.0 0.0 0.0 0.0 0.0 0.0 0.0 0.0 0.0 0.0 0.0 0.0 0.0 0.0 0.0 0.0 0.0 0.3 0.9 1.2 1.3 1.1 0.7 0.4 0.4 0.5
11.2 5.0 0.4 0.4 0.0 0.3 1.1 1.1 0.3 0.4 0.1 0.0 0.0 0.3 1.3 0.0 0.0 0.0 0.0 0.0 0.0 0.0 0.0 0.0 0.0 0.0 0.0 0.0 0.0 0.0 0.0 0.5 0.6 0.4 0.6 2.5 2.9 2.9 2.5 1.9 1.5 1.0 0.7 0.4
8.0 12.2 6.1 1.7 0.3 0.0 0.0 5.1 1.5 0.5 0.2 0.2 0.0 0.5 0.9 0.1 0.0 0.0 0.0 0.0 0.0 0.0 0.0 0.0 0.0 0.0 0.0 0.0 0.4 0.0 2.0 2.4 0.8 3.0 3.4 4.0 3.6 3.4 2.5 1.7 1.2 0.7 0.6 0.3
13.2 20.1 4.6 1.0 0.0 0.0 2.0 7.1 1.0 0.7 1.4 2.9 2.6 2.4 0.7 0.1 0.0 0.0 0.0 0.0 0.0 0.0 0.0 0.0 0.0 0.0 0.0 0.2 0.1 1.9 2.2 4.2 4.4 5.3 5.3 4.5 3.8 2.8 2.0 1.2 0.6 0.6 0.4 0.2
11.8 17.3 14.6 0.5 0.0 3.5 3.0 0.9 1.3 1.6 2.2 4.9 1.4 0.2 0.0 0.0 0.0 0.0 0.0 0.0 0.0 0.0 0.0 0.0 0.0 0.0 0.1 0.1 2.0 2.8 4.3 4.9 4.7 4.1 3.3 2.9 2.4 2.0 1.2 0.8 0.7 0.4 0.5 0.2
7.2 6.5 2.0 1.2 1.8 1.6 1.6 2.1 2.1 1.9 1.2 0.2 0.2 0.0 0.0 0.0 0.0 0.0 0.0 0.0 0.0 0.0 0.0 0.0 0.0 0.0 0.1 0.5 1.4 2.8 3.6 2.7 2.3 1.8 1.6 1.4 1.2 1.1 0.9 0.6 0.5 0.6 0.6 0.5
6.1 3.2 1.2 2.1 0.8 0.9 1.2 1.5 0.5 0.0 0.0 0.0 0.0 0.0 0.0 0.0 0.0 0.0 0.0 0.0 0.0 0.0 0.0 0.0 0.0 0.0 0.3 1.1 2.3 2.6 3.0 2.3 1.6 1.3 1.0 0.8 0.7 0.5 0.5 1.1 0.9 1.1 2.0 3.1
7.9 5.9 0.8 0.9 1.5 1.8 0.8 0.3 0.3 0.0 0.0 0.0 0.0 0.0 0.0 0.0 0.0 0.0 0.0 0.0 0.0 0.1 0.0 0.0 0.0 0.5 0.7 1.7 1.6 1.6 1.6 1.3 2.4 1.0 0.8 0.6 0.3 0.4 0.7 2.0 3.2 4.4 4.6 6.8
10.8 5.4 6.3 4.4 5.5 1.8 1.1 0.2 0.0 0.0 0.0 0.0 0.0 0.0 0.0 0.0 0.1 0.1 0.0 0.0 0.0 0.0 0.1 0.2 0.1 0.6 1.3 1.1 0.6 0.8 2.0 3.0 5.6 3.3 8.4 6.1 6.0 6.8 5.6 5.2 5.3 9.3 12.2 13.7
2.2 1.8 1.6 1.6 0.0 0.0 0.4 1.1 0.7 0.0 0.2 0.0 0.0 0.0 0.0 0.1 0.1 0.7 0.7 0.5 0.9 0.6 0.7 1.1 1.0 0.9 1.1 0.9 1.2 1.2 2.1 2.8 5.0 7.4 10.7 13.5 15.7 12.2 13.4 14.8 14.3 15.1 12.0 11.0
0.0 0.0 0.0 0.0 0.3 0.0 0.0 0.0 0.4 0.0 0.0 0.0 0.0 0.0 0.0 0.1 1.3 3.0 3.6 4.2 3.4 1.7 2.8 2.5 0.9 2.4 5.3 4.7 5.7 6.4 6.5 9.9 11.4 14.1 19.3 21.4 21.1 23.1 23.2 19.7 15.1 17.7 18.0 19.0
0.0 0.0 0.1 0.0 0.0 0.0 0.0 0.0 0.0 0.0 0.0 0.0 0.0 0.0 0.0 0.6 2.6 3.4 9.9 11.3 8.3 11.6 15.0 13.7 12.5 18.7 18.0 15.9 16.5 18.0 15.6 17.6 18.4 20.9 20.8 21.7 23.3 23.3 22.0 21.3 20.6 19.4 19.2 17.2
0.0 0.0 0.0 0.0 0.0 0.0 0.0 0.0 0.0 0.0 0.0 0.0 0.0 0.0 0.0 1.4 3.3 4.4 7.3 11.3 12.8 18.6 23.0 22.4 23.5 24.9 20.1 17.6 15.4 15.6 15.5 14.5 12.2 12.2 15.3 17.9 18.2 18.8 20.2 20.2 20.0 20.7 20.5 21.4
0.2 0.0 0.0 0.0 0.0 0.0 0.0 0.0 0.0 0.0 0.0 0.0 0.1 0.1 0.2 0.8 3.0 6.3 11.5 12.9 15.8 18.4 19.3 17.2 17.9 13.5 10.6 10.0 9.2 8.9 9.3 9.3 8.9 8.7 9.1 10.3 13.2 14.9 16.6 16.7 17.6 18.6 20.0 20.2
0.0 0.0 0.0 0.1 0.1 0.0 0.0 0.0 0.0 0.0 0.1 0.2 0.5 1.2 2.1 4.5 8.3 14.2 18.9 19.2 13.6 12.1 13.6 13.0 9.6 7.0 6.2 6.6 5.7 5.2 5.4 5.4 6.5 7.9 7.4 8.3 10.5 11.2 11.1 11.1 12.0 12.5 14.4 15.4
0.2 1.0 0.4 0.3 0.1 0.1 0.1 0.1 0.3 0.3 1.6 2.2 3.9 7.8 9.5 11.7 11.9 11.2 11.0 11.2 12.0 10.0 11.5 6.9 4.9 4.0 3.6 3.9 3.2 3.7 3.9 4.4 4.3 4.9 5.5 5.5 7.0 8.1 10.4 9.5 9.5 10.5 11.4 12.3
1.4 0.8 0.7 0.1 0.0 0.0 0.5 1.2 1.8 3.1 5.3 5.0 5.8 7.9 7.9 9.1 8.0 8.2 7.1 7.8 7.0 6.4 4.1 4.3 3.4 3.4 2.9 2.2 1.3 1.5 2.0 2.6 3.4 4.4 5.3 5.8 7.3 7.9 8.1 6.6 8.5 9.2 9.5 10.6
0.9 0.3 0.2 0.3 0.9 1.6 2.5 4.1 3.9 6.1 9.1 7.3 5.4 7.3 8.9 12.0 11.0 9.7 7.3 4.5 5.5 3.8 3.4 2.9 2.1 1.9 0.9 1.1 1.2 1.6 2.6 3.1 3.6 5.2 5.2 5.6 5.7 5.9 6.0 6.5 7.4 7.1 8.9 9.5
5.5 6.0 4.9 4.4 4.5 6.4 7.7 7.5 6.2 7.1 7.5 8.6 9.7 9.3 9.1 11.1 10.5 8.8 6.6 5.6 4.9 3.7 3.0 2.6 1.8 1.6 1.2 1.3 1.8 2.5 2.5 2.8 2.7 2.8 3.3 4.1 4.7 5.2 5.2 5.5 6.6 6.6 7.0 7.3
11.9 11.8 11.1 10.1 9.0 10.3 11.5 10.6 10.9 9.2 10.0 10.0 9.7 9.7 8.3 9.3 7.5 5.5 5.1 4.2 2.8 2.8 2.4 2.1 1.7 1.6 1.5 2.5 3.3 3.3 3.7 2.7 2.9 3.1 3.7 3.6 4.3 4.8 4.7 4.7 5.4 5.6 6.3 5.7
10.5 10.4 12.6 11.4 9.9 8.2 9.4 11.7 10.3 10.0 9.0 10.3 9.1 8.5 6.7 6.2 6.4 4.6 3.4 3.2 2.8 2.6 2.1 2.5 1.8 1.6 1.9 2.9 3.2 2.8 3.5 2.8 2.5 2.9 2.7 1.8 3.4 2.8 3.2 3.6 3.6 3.4 3.7 3.7
9.1 8.1 7.6 7.9 7.6 9.0 8.1 8.4 7.4 8.6 8.2 10.1 9.0 7.4 5.4 3.8 3.1 4.7 3.2 3.8 2.9 2.2 2.6 2.5 1.5 1.7 2.4 3.2 3.2 2.7 3.3 2.9 2.5 3.3 3.5 3.2 2.9 2.8 2.9 2.6 2.6 2.7 2.3 2.5
9.2 8.9 8.2 7.2 7.4 7.1 6.5 6.4 7.4 9.4 8.1 8.6 8.1 6.5 5.7 4.5 4.2 3.6 2.9 2.5 1.5 1.6 2.7 3.7 2.5 2.1 2.9 2.8 2.9 2.6 2.9 2.7 2.4 2.7 2.9 2.7 2.9 2.8 2.4 2.5 2.1 2.0 2.1 1.9
8.1 7.5 5.5 6.2 6.6 6.5 6.2 6.4 6.3 7.7 7.2 6.7 7.6 6.0 5.0 5.0 4.6 4.3 3.1 3.3 3.1 3.2 3.4 3.6 2.9 2.2 1.8 2.7 3.3 3.0 2.8 2.4 1.2 2.1 2.2 2.6 2.9 3.0 2.9 3.1 3.0 2.7 2.6 3.0

GFSNGP_prec_kuchsnow_198.txt.gz
Snowfall_Accumulation
0.0 0.0 0.1 0.0 0.0 0.1 1.4 1.7 5.8 0.2 0.3 0.3 0.0 0.3 0.1 0.0 0.0 0.1 0.4 0.3 0.0 0.8 1.2 0.6 1.9 1.1 1.4 1.0 0.5 0.6 0.2 0.3 0.3 0.0 0.1 0.2 0.2 0.5 1.0 0.8 0.5 0.4 0.8 0.7
0.9 0.0 0.0 0.3 0.1 0.2 0.1 0.1 0.4 0.3 0.6 0.1 0.0 0.0 0.0 0.0 0.0 0.0 0.1 0.0 0.0 0.0 0.0 0.0 0.2 0.2 0.1 0.3 0.1 0.0 0.1 0.0 0.1 0.0 0.0 0.1 0.1 0.1 0.1 0.8 0.8 0.7 0.5 0.4
6.2 0.1 0.1 2.9 0.2 0.0 1.3 1.9 2.1 1.0 0.8 0.0 0.0 0.0 0.3 0.0 0.0 0.0 0.0 0.0 0.0 0.0 0.0 0.0 0.0 0.0 0.1 0.0 0.0 0.0 0.0 0.0 0.0 0.0 0.0 0.0 0.0 0.0 0.1 0.0 0.1 1.2 1.2 1.0
8.4 0.9 13.8 0.1 0.0 0.0 1.4 0.9 0.0 0.1 0.0 0.0 0.0 0.2 0.3 0.1 0.0 0.0 0.0 0.0 0.0 0.0 0.0 0.0 0.0 0.0 0.0 0.0 0.0 0.0 0.0 0.0 0.0 0.0 0.0 0.3 0.9 1.2 1.3 1.1 0.7 0.4 1.0 1.4
11.8 5.5 0.4 0.4 0.0 0.3 1.1 1.1 0.3 0.4 0.1 0.0 0.0 0.3 1.3 0.0 0.0 0.0 0.0 0.0 0.0 0.0 0.0 0.0 0.0 0.0 0.0 0.0 0.0 0.0 0.0 0.5 0.6 0.4 0.6 2.5 2.9 2.9 2.5 1.9 2.4 2.2 2.6 3.0
8.5 13.4 6.7 1.7 0.3 0.0 0.0 5.6 1.5 0.5 0.2 0.2 0.0 0.5 0.9 0.1 0.0 0.0 0.0 0.0 0.0 0.0 0.0 0.0 0.0 0.0 0.0 0.0 0.4 0.0 2.0 2.4 0.8 3.0 3.4 4.0 3.6 3.4 3.2 2.7 3.3 3.0 3.2 2.4
13.5 21.0 4.7 1.0 0.0 0.0 2.1 7.2 1.0 0.7 1.4 2.9 2.6 2.4 0.7 0.1 0.0 0.0 0.0 0.0 0.0 0.0 0.0 0.0 0.0 0.0 0.0 0.2 0.1 1.9 2.2 4.2 4.4 5.3 5.3 4.5 4.9 4.3 3.8 4.3 3.7 3.4 2.8 2.0
12.3 18.1 15.0 0.5 0.0 3.5 3.0 0.9 1.3 1.6 2.2 4.9 1.4 0.2 0.0 0.0 0.0 0.0 0.0 0.0 0.0 0.0 0.0 0.0 0.0 0.0 0.1 0.1 2.0 2.8 4.3 4.9 4.7 4.1 4.6 4.3 3.9 4.7 3.9 3.2 3.0 2.7 2.7 2.4
7.4 6.6 2.0 1.2 1.8 1.6 1.6 2.1 2.1 1.9 1.2 0.2 0.2 0.0 0.0 0.0 0.0 0.0 0.0 0.0 0.0 0.0 0.0 0.0 0.0 0.0 0.1 0.5 1.4 2.8 3.6 2.7 4.0 3.2 2.9 2.6 3.4 3.4 3.2 2.7 2.6 3.1 2.9 2.5
6.1 3.2 1.2 2.1 0.8 0.9 1.2 1.5 0.5 0.0 0.0 0.0 0.0 0.0 0.0 0.0 0.0 0.0 0.0 0.0 0.0 0.0 0.0 0.0 0.0 0.0 0.3 1.1 3.1 4.0 4.5 5.6 4.8 4.4 3.8 2.9 2.5 1.9 1.9 2.7 2.7 2.7 3.5 4.2
7.9 5.9 0.8 0.9 1.5 1.8 0.8 0.3 0.3 0.0 0.0 0.0 0.0 0.0 0.0 0.0 0.0 0.0 0.0 0.0 0.0 0.1 0.0 0.0 0.0 0.5 0.7 1.7 2.2 2.8 2.8 3.1 4.0 3.1 2.3 1.7 1.3 1.2 1.4 2.7 3.6 4.8 5.0 6.8
10.8 5.4 6.3 4.4 5.5 1.8 1.1 0.2 0.0 0.0 0.0 0.0 0.0 0.0 0.0 0.0 0.1 0.1 0.0 0.0 0.0 0.0 0.1 0.2 0.1 0.6 1.3 1.1 0.6 0.9 2.6 3.4 6.0 4.0 9.1 6.6 6.2 7.9 6.5 5.8 5.7 9.5 12.3 13.8
2.2 1.8 1.6 1.6 0.0 0.0 0.4 1.1 0.7 0.0 0.2 0.0 0.0 0.0 0.0 0.1 0.1 0.7 0.7 0.5 0.9 0.6 0.7 1.1 1.0 0.9 1.1 0.9 1.2 1.2 2.1 2.9 5.2 7.7 11.0 13.8 15.7 12.2 13.9 15.3 14.4 15.1 12.0 11.0
0.0 0.0 0.0 0.0 0.3 0.0 0.0 0.0 0.4 0.0 0.0 0.0 0.0 0.0 0.0 0.1 1.3 3.0 3.6 4.2 3.4 1.7 2.8 2.5 1.0 2.5 5.8 4.8 5.7 6.5 6.5 9.9 11.4 14.3 19.6 21.6 21.3 23.3 23.2 19.7 15.2 17.8 18.0 19.0
0.0 0.0 0.1 0.0 0.0 0.0 0.0 0.0 0.0 0.0 0.0 0.0 0.0 0.0 0.0 0.6 2.6 3.4 9.9 11.3 8.3 11.6 15.0 13.7 12.6 19.2 18.4 16.1 16.8 18.3 15.8 17.9 18.6 21.0 20.8 21.7 23.4 23.5 22.0 21.3 20.6 19.4 19.2 17.2
0.1 0.0 0.0 0.1 0.0 0.0 0.0 0.0 0.0 0.0 0.0 0.0 0.0 0.0 0.0 1.4 3.3 4.4 7.3 11.3 12.8 18.6 23.0 22.6 23.9 25.4 20.6 18.0 15.8 16.1 16.0 14.8 12.2 12.2 15.3 17.9 18.3 18.8 20.2 20.2 20.0 20.8 20.6 21.5
1.4 0.4 0.1 0.1 0.1 0.1 0.2 0.1 0.2 0.1 0.0 0.0 0.1 0.1 0.2 0.8 3.0 6.3 11.5 12.9 15.8 18.4 19.5 17.5 18.6 14.2 11.3 10.6 9.6 9.2 9.6 9.5 9.0 8.8 9.1 10.3 13.2 14.9 16.6 16.7 17.6 18.7 20.0 20.3
0.1 0.0 0.1 1.2 1.4 0.8 0.3 0.2 0.2 0.1 0.1 0.2 0.5 1.2 2.1 4.5 8.3 14.2 18.9 19.2 14.0 12.7 14.4 13.9 10.5 7.9 6.9 7.1 6.0 5.4 5.6 5.5 6.5 7.9 7.4 8.3 10.5 11.2 11.1 11.1 12.0 12.5 14.7 15.6
0.2 1.5 1.1 1.2 1.0 1.0 0.6 0.4 0.4 0.3 1.6 2.2 3.9 7.8 9.5 11.7 11.9 11.2 11.0 11.3 12.3 10.5 12.4 7.9 6.1 4.8 4.1 4.2 3.4 3.8 4.0 4.4 4.3 4.9 5.5 5.5 7.0 8.1 10.4 9.5 9.5 10.5 11.6 12.4
1.4 0.9 1.1 0.6 0.3 0.5 0.7 1.3 1.8 3.1 5.3 5.0 5.9 7.9 7.9 9.1 8.0 8.3 7.4 8.1 7.0 6.4 4.3 4.8 3.8 3.7 3.1 2.2 1.3 1.5 2.0 2.6 3.4 4.4 5.3 5.8 7.3 7.9 8.1 6.6 8.5 9.3 9.7 10.7
1.0 0.5 0.6 0.8 1.1 1.8 2.6 4.2 3.9 6.1 9.1 7.3 5.5 7.4 9.2 12.3 11.6 10.2 7.6 4.7 5.6 3.9 3.5 3.0 2.1 1.9 0.9 1.1 1.2 1.6 2.6 3.1 3.6 5.2 5.2 5.6 5.7 5.9 6.0 6.5 7.4 7.1 9.0 9.6
5.5 6.2 5.1 4.9 4.7 6.6 7.8 7.5 6.2 7.1 7.7 8.9 10.0 9.7 9.6 11.7 10.9 8.9 6.6 5.6 5.0 3.7 3.0 2.6 1.8 1.6 1.2 1.3 1.8 2.5 2.5 2.8 2.7 2.8 3.3 4.1 4.7 5.3 5.3 5.6 6.7 6.7 7.1 7.4
11.9 11.8 11.5 10.5 9.4 10.5 11.7 10.8 11.0 9.3 10.4 10.6 10.0 10.0 8.4 9.4 7.6 5.5 5.1 4.2 2.8 2.8 2.4 2.1 1.7 1.6 1.5 2.5 3.3 3.3 3.7 2.7 2.9 3.1 3.7 3.6 4.3 4.9 4.7 4.8 5.6 5.8 6.5 5.8
10.5 10.4 12.8 11.5 10.0 8.2 9.5 12.0 10.7 10.5 9.7 11.0 9.6 8.6 6.8 6.2 6.4 4.6 3.4 3.2 2.8 2.6 2.1 2.5 1.8 1.6 1.9 2.9 3.2 2.8 3.5 2.8 2.5 2.9 2.8 1.9 3.5 2.9 3.3 3.7 3.7 3.5 3.9 3.8
9.1 8.1 7.6 7.9 7.7 9.0 8.2 8.6 7.9 9.5 9.0 10.6 9.4 7.6 5.4 3.8 3.1 4.7 3.2 3.8 2.9 2.2 2.6 2.5 1.5 1.7 2.4 3.2 3.2 2.7 3.3 2.9 2.6 3.4 3.5 3.2 3.0 2.9 3.0 2.7 2.6 2.8 2.4 2.5
9.2 8.9 8.2 7.2 7.5 7.2 6.5 6.4 7.5 9.6 8.3 9.0 8.5 6.6 5.7 4.5 4.2 3.6 2.9 2.5 1.5 1.6 2.7 3.7 2.5 2.1 2.9 2.8 2.9 2.6 2.9 2.7 2.4 2.8 2.9 2.8 2.9 2.8 2.6 2.6 2.2 2.0 2.2 2.0
8.1 7.5 5.5 6.2 6.6 6.5 6.3 6.6 6.4 7.8 7.3 6.8 7.7 6.2 5.2 5.1 4.6 4.3 3.1 3.3 3.1 3.2 3.4 3.6 2.9 2.2 1.8 2.7 3.3 3.0 2.9 2.4 1.2 2.1 2.2 2.7 3.0 3.1 3.1 3.2 3.1 2.8 2.6 3.0

GFSNGP_prec_kuchsnow_201.txt.gz
Snowfall_Accumulation
0.0 0.0 0.1 0.0 0.0 0.1 1.4 1.7 5.9 0.2 0.3 0.3 0.0 0.3 0.1 0.0 0.0 0.1 0.4 0.3 0.0 0.8 1.2 0.6 1.9 1.1 1.4 1.0 0.5 0.6 0.2 0.3 0.3 0.0 0.1 0.2 0.2 0.5 1.0 0.8 0.5 0.4 0.8 0.7
0.9 0.1 0.0 0.3 0.1 0.2 0.1 0.1 0.4 0.3 0.6 0.1 0.0 0.0 0.0 0.0 0.0 0.0 0.1 0.0 0.0 0.0 0.0 0.0 0.2 0.2 0.1 0.3 0.1 0.0 0.1 0.0 0.1 0.0 0.0 0.1 0.1 0.1 0.1 0.8 0.8 0.7 0.5 0.4
6.6 0.1 0.1 2.9 0.2 0.0 1.3 1.9 2.1 1.0 0.8 0.0 0.0 0.0 0.3 0.0 0.0 0.0 0.0 0.0 0.0 0.0 0.0 0.0 0.0 0.0 0.1 0.0 0.0 0.0 0.0 0.0 0.0 0.0 0.0 0.0 0.0 0.0 0.1 0.0 0.1 1.2 1.2 1.0
8.4 0.9 13.8 0.1 0.0 0.0 1.4 0.9 0.0 0.1 0.0 0.0 0.0 0.2 0.3 0.1 0.0 0.0 0.0 0.0 0.0 0.0 0.0 0.0 0.0 0.0 0.0 0.0 0.0 0.0 0.0 0.0 0.0 0.0 0.0 0.3 0.9 1.2 1.3 1.1 0.7 0.4 1.0 1.4
11.8 5.5 0.4 0.4 0.0 0.3 1.1 1.1 0.3 0.4 0.1 0.0 0.0 0.3 1.3 0.0 0.0 0.0 0.0 0.0 0.0 0.0 0.0 0.0 0.0 0.0 0.0 0.0 0.0 0.0 0.0 0.5 0.6 0.4 0.6 2.5 2.9 2.9 2.5 1.9 2.4 2.2 2.6 3.3
9.6 15.0 7.5 1.7 0.3 0.0 0.0 5.6 1.5 0.5 0.2 0.2 0.0 0.5 0.9 0.1 0.0 0.0 0.0 0.0 0.0 0.0 0.0 0.0 0.0 0.0 0.0 0.0 0.4 0.0 2.0 2.4 0.8 3.0 3.4 4.0 3.6 3.4 3.2 2.7 3.3 3.0 3.9 2.9
13.5 21.3 4.8 1.0 0.0 0.0 2.1 7.2 1.0 0.7 1.4 2.9 2.6 2.4 0.7 0.1 0.0 0.0 0.0 0.0 0.0 0.0 0.0 0.0 0.0 0.0 0.0 0.2 0.1 1.9 2.2 4.2 4.4 5.3 5.3 4.5 4.9 4.3 3.8 4.3 3.7 4.0 3.6 2.7
12.3 18.1 15.0 0.5 0.0 3.5 3.0 0.9 1.3 1.6 2.2 4.9 1.4 0.2 0.0 0.0 0.0 0.0 0.0 0.0 0.0 0.0 0.0 0.0 0.0 0.0 0.1 0.1 2.0 2.8 4.3 4.9 4.7 4.1 4.6 4.3 3.9 4.7 3.9 3.2 3.7 3.6 3.5 3.3
7.4 6.6 2.0 1.2 1.8 1.6 1.6 2.1 2.1 1.9 1.2 0.2 0.2 0.0 0.0 0.0 0.0 0.0 0.0 0.0 0.0 0.0 0.0 0.0 0.0 0.0 0.1 0.5 1.4 2.8 3.6 2.7 4.0 3.2 2.9 2.6 3.4 4.3 4.2 3.5 3.3 3.9 3.6 3.2
6.1 3.2 1.2 2.1 0.8 0.9 1.2 1.5 0.5 0.0 0.0 0.0 0.0 0.0 0.0 0.0 0.0 0.0 0.0 0.0 0.0 0.0 0.0 0.0 0.0 0.0 0.3 1.1 3.1 4.0 4.5 5.6 4.8 4.4 4.7 4.2 3.9 3.1 2.8 3.4 3.4 3.4 4.1 4.9
7.9 5.9 0.8 0.9 1.5 1.8 0.8 0.3 0.3 0.0 0.0 0.0 0.0 0.0 0.0 0.0 0.0 0.0 0.0 0.0 0.0 0.1 0.0 0.0 0.0 0.5 0.7 1.7 2.2 2.8 2.8 3.1 4.6 3.9 3.6 3.0 2.5 2.0 1.9 3.0 3.7 5.0 5.2 6.8
10.8 5.4 6.3 4.4 5.5 1.8 1.1 0.2 0.0 0.0 0.0 0.0 0.0 0.0 0.0 0.0 0.1 0.1 0.0 0.0 0.0 0.0 0.1 0.2 0.1 0.6 1.3 1.1 0.6 0.9 2.6 3.4 6.5 4.5 10.4 7.3 7.1 8.9 7.0 6.0 6.0 9.7 12.5 14.1
2.2 1.8 1.6 1.6 0.0 0.0 0.4 1.1 0.7 0.0 0.2 0.0 0.0 0.0 0.0 0.1 0.1 0.7 0.7 0.5 0.9 0.6 0.7 1.1 1.0 0.9 1.1 0.9 1.2 1.2 2.1 3.0 5.4 8.0 11.4 14.3 16.1 12.5 14.5 15.9 14.7 15.3 12.2 11.1
0.0 0.0 0.0 0.0 0.4 0.0 0.0 0.0 0.4 0.0 0.0 0.0 0.0 0.0 0.0 0.1 1.3 3.0 3.6 4.2 3.4 1.7 2.8 2.5 1.0 2.5 5.8 4.8 6.0 6.5 6.5 10.0 11.5 14.4 19.7 21.8 21.5 23.3 23.2 19.7 15.5 18.3 18.1 19.0
0.1 0.0 0.1 0.0 0.0 0.0 0.0 0.0 0.0 0.1 0.0 0.0 0.0 0.0 0.0 0.6 2.6 3.4 9.9 11.3 8.3 11.6 15.0 13.7 12.6 19.2 18.4 16.1 16.8 18.3 15.8 18.0 18.7 21.1 20.9 21.7 23.4 23.5 22.0 21.3 20.6 19.5 19.3 17.3
0.1 0.0 0.0 0.1 0.0 0.0 0.0 0.2 0.3 0.1 0.0 0.0 0.1 0.0 0.0 1.4 3.3 4.4 7.3 11.3 12.8 18.6 23.0 22.6 23.9 25.4 20.6 18.0 15.8 16.1 16.2 15.1 12.7 12.6 15.3 17.9 18.3 18.8 20.2 20.2 20.0 20.8 20.6 21.5
1.9 0.8 0.1 0.2 0.2 0.1 0.3 0.4 0.5 0.4 0.1 0.1 0.1 0.1 0.2 0.8 3.0 6.3 11.5 12.9 15.8 18.4 19.5 17.5 18.6 14.4 11.5 10.8 9.6 9.2 10.0 9.9 9.3 9.0 9.2 10.3 13.2 14.9 16.6 16.7 17.6 18.7 20.0 20.3
0.1 0.1 0.1 1.5 2.2 1.2 0.6 0.5 0.6 0.3 0.2 0.2 0.5 1.2 2.1 4.5 8.3 14.2 18.9 19.2 14.0 12.7 14.4 13.9 10.5 8.1 7.2 7.3 6.1 5.7 5.8 5.8 6.7 8.0 7.4 8.3 10.5 11.2 11.1 11.1 12.0 12.5 14.7 15.6
0.2 1.5 1.1 1.5 1.7 1.5 1.2 1.0 0.7 0.5 1.7 2.2 3.9 7.8 9.5 11.7 11.9 11.2 11.0 11.3 12.3 10.5 12.4 7.9 6.1 5.1 4.4 4.6 3.6 4.1 4.3 4.6 4.4 4.9 5.5 5.5 7.0 8.1 10.4 9.5 9.5 10.5 11.6 12.4
1.4 0.9 1.1 0.6 0.3 1.0 1.1 1.3 2.1 3.3 5.4 5.0 5.9 7.9 7.9 9.1 8.0 8.3 7.4 8.1 7.0 6.4 4.3 4.8 4.1 4.0 3.4 2.6 1.5 1.7 2.2 2.6 3.4 4.4 5.3 5.8 7.3 7.9 8.1 6.6 8.5 9.3 9.7 10.7
1.0 0.5 0.6 0.8 1.1 1.8 2.9 4.4 4.2 6.1 9.1 7.3 5.6 7.4 9.2 12.3 11.6 10.2 7.8 4.7 5.8 3.9 3.5 3.1 2.1 2.1 1.1 1.3 1.3 1.7 2.6 3.1 3.6 5.2 5.2 5.6 5.7 5.9 6.0 6.5 7.4 7.1 9.0 9.6
5.5 6.2 5.1 4.9 4.7 6.6 7.8 7.6 6.4 7.3 7.7 8.9 10.0 10.0 9.9 12.0 11.2 9.2 6.6 5.6 5.0 3.7 3.1 2.6 1.8 1.6 1.2 1.3 1.8 2.5 2.5 2.8 2.7 2.8 3.3 4.1 4.7 5.3 5.3 5.6 6.7 6.7 7.1 7.4
11.9 11.8 11.5 10.5 9.4 10.5 11.7 10.8 11.1 9.5 10.6 10.9 10.4 10.4 8.7 9.6 7.7 5.5 5.2 4.2 2.8 2.8 2.4 2.1 1.7 1.6 1.5 2.5 3.3 3.3 3.7 2.7 2.9 3.1 3.7 3.6 4.3 4.9 4.7 4.8 5.6 5.8 6.5 5.8
10.5 10.4 12.8 11.5 10.0 8.2 9.5 12.0 10.7 10.7 10.1 11.5 10.0 8.9 7.0 6.3 6.4 4.6 3.4 3.2 2.8 2.6 2.1 2.5 1.8 1.6 1.9 2.9 3.2 2.8 3.5 2.8 2.5 2.9 2.8 1.9 3.5 2.9 3.3 3.7 3.7 3.5 3.9 3.8
9.1 8.1 7.6 7.9 7.7 9.0 8.3 8.7 7.9 9.5 9.0 10.9 9.8 7.9 5.5 3.8 3.1 4.7 3.2 3.8 2.9 2.2 2.6 2.5 1.5 1.7 2.4 3.2 3.2 2.7 3.3 2.9 2.6 3.4 3.5 3.2 3.0 2.9 3.0 2.7 2.6 2.8 2.4 2.5
9.2 8.9 8.2 7.2 7.5 7.2 6.5 6.4 7.5 9.6 8.3 9.2 8.7 6.9 6.0 4.8 4.3 3.6 2.9 2.5 1.5 1.6 2.7 3.7 2.5 2.1 2.9 2.8 2.9 2.6 2.9 2.7 2.4 2.8 2.9 2.8 2.9 2.8 2.6 2.6 2.2 2.0 2.2 2.0
8.1 7.5 5.5 6.2 6.6 6.5 6.4 6.6 6.4 7.8 7.5 7.1 8.0 6.4 5.6 5.5 5.0 4.5 3.1 3.3 3.1 3.2 3.4 3.6 2.9 2.2 1.8 2.7 3.3 3.0 2.9 2.4 1.2 2.1 2.2 2.7 3.0 3.1 3.1 3.2 3.1 2.8 2.6 3.0

GFSNGP_prec_kuchsnow_204.txt.gz
Snowfall_Accumulation
0.0 0.0 0.1 0.0 0.0 0.1 1.4 1.7 5.9 0.2 0.3 0.3 0.0 0.3 0.1 0.0 0.0 0.1 0.4 0.3 0.0 0.8 1.2 0.6 1.9 1.1 1.4 1.0 0.5 0.6 0.2 0.3 0.3 0.0 0.1 0.2 0.2 0.5 1.0 0.8 0.5 0.4 0.8 0.7
0.9 0.1 0.1 0.6 0.1 0.2 0.1 0.1 0.4 0.3 0.6 0.1 0.0 0.0 0.0 0.0 0.0 0.0 0.1 0.0 0.0 0.0 0.0 0.0 0.2 0.2 0.1 0.3 0.1 0.0 0.1 0.0 0.1 0.0 0.0 0.1 0.1 0.1 0.1 0.8 0.8 0.7 0.5 0.4
6.9 0.1 0.1 3.4 0.2 0.0 1.3 1.9 2.1 1.0 0.8 0.0 0.0 0.0 0.3 0.0 0.0 0.0 0.0 0.0 0.0 0.0 0.0 0.0 0.0 0.0 0.1 0.0 0.0 0.0 0.0 0.0 0.0 0.0 0.0 0.0 0.0 0.0 0.1 0.0 0.1 1.2 1.2 1.0
8.4 0.9 13.9 0.1 0.0 0.0 1.4 0.9 0.0 0.1 0.0 0.0 0.0 0.2 0.3 0.1 0.0 0.0 0.0 0.0 0.0 0.0 0.0 0.0 0.0 0.0 0.0 0.0 0.0 0.0 0.0 0.0 0.0 0.0 0.0 0.3 0.9 1.2 1.3 1.1 0.7 0.4 1.0 1.4
11.9 5.5 0.4 0.4 0.0 0.3 1.1 1.1 0.3 0.4 0.1 0.0 0.0 0.3 1.3 0.0 0.0 0.0 0.0 0.0 0.0 0.0 0.0 0.0 0.0 0.0 0.0 0.0 0.0 0.0 0.0 0.5 0.6 0.4 0.6 2.5 2.9 2.9 2.5 1.9 2.4 2.2 2.6 3.3
10.1 16.7 9.1 1.7 0.3 0.0 0.0 5.6 1.5 0.5 0.2 0.2 0.0 0.5 0.9 0.1 0.0 0.0 0.0 0.0 0.0 0.0 0.0 0.0 0.0 0.0 0.0 0.0 0.4 0.0 2.0 2.4 0.8 3.0 3.4 4.0 3.6 3.4 3.2 2.7 3.3 3.0 3.9 2.9
13.5 21.6 4.8 1.0 0.0 0.0 2.1 7.2 1.0 0.7 1.4 2.9 2.6 2.4 0.7 0.1 0.0 0.0 0.0 0.0 0.0 0.0 0.0 0.0 0.0 0.0 0.0 0.2 0.1 1.9 2.2 4.2 4.4 5.3 5.3 4.5 4.9 4.3 3.8 4.3 3.7 4.0 3.6 2.7
12.3 18.1 15.0 0.5 0.0 3.5 3.0 0.9 1.3 1.6 2.2 4.9 1.4 0.2 0.0 0.0 0.0 0.0 0.0 0.0 0.0 0.0 0.0 0.0 0.0 0.0 0.1 0.1 2.0 2.8 4.3 4.9 4.7 4.1 4.6 4.3 3.9 4.7 3.9 3.2 3.7 3.6 3.5 4.1
7.4 6.6 2.0 1.2 1.8 1.6 1.6 2.1 2.1 1.9 1.2 0.2 0.2 0.0 0.0 0.0 0.0 0.0 0.0 0.0 0.0 0.0 0.0 0.0 0.0 0.0 0.1 0.5 1.4 2.8 3.6 2.7 4.0 3.2 2.9 2.6 3.4 4.3 4.2 3.5 4.0 4.8 4.7 4.6
6.1 3.2 1.2 2.1 0.8 0.9 1.2 1.5 0.5 0.0 0.0 0.0 0.0 0.0 0.0 0.0 0.0 0.0 0.0 0.0 0.0 0.0 0.0 0.0 0.0 0.0 0.3 1.1 3.1 4.0 4.5 5.6 4.8 4.4 4.7 4.2 3.9 3.6 3.6 4.7 5.0 5.1 6.1 6.2
7.9 5.9 0.8 0.9 1.5 1.8 0.8 0.3 0.3 0.0 0.0 0.0 0.0 0.0 0.0 0.0 0.0 0.0 0.0 0.0 0.0 0.1 0.0 0.0 0.0 0.5 0.7 1.7 2.2 2.8 2.8 3.1 4.6 3.9 3.6 3.0 2.5 2.9 3.0 4.2 4.7 6.2 5.9 6.8
10.8 5.4 6.3 4.4 5.5 1.8 1.1 0.2 0.0 0.0 0.0 0.0 0.0 0.0 0.0 0.0 0.1 0.1 0.0 0.0 0.0 0.0 0.1 0.2 0.1 0.6 1.3 1.1 0.6 0.9 2.6 3.4 6.5 4.5 10.4 8.1 8.0 10.1 7.9 6.7 6.4 10.0 12.7 14.2
2.2 1.8 1.7 1.7 0.0 0.0 0.4 1.1 0.7 0.0 0.2 0.0 0.0 0.0 0.0 0.1 0.1 0.7 0.7 0.5 0.9 0.6 0.7 1.1 1.0 0.9 1.1 0.9 1.2 1.2 2.1 3.0 5.4 8.0 11.8 15.2 17.0 13.3 15.5 17.0 15.3 15.5 12.3 11.1
0.0 0.3 0.4 0.0 0.4 0.0 0.0 0.0 0.4 0.0 0.0 0.0 0.0 0.0 0.0 0.1 1.3 3.0 3.6 4.2 3.4 1.7 2.8 2.5 1.0 2.5 5.8 4.8 6.0 6.5 6.5 10.0 11.5 14.4 19.9 22.2 21.9 23.8 23.5 20.0 15.9 18.9 18.5 19.2
0.1 0.0 0.1 0.0 0.0 0.0 0.0 0.0 0.2 0.1 0.0 0.0 0.0 0.0 0.0 0.6 2.6 3.4 9.9 11.3 8.3 11.6 15.0 13.7 12.6 19.2 18.4 16.1 16.8 18.3 15.8 18.0 18.7 21.1 21.1 22.1 23.7 23.8 22.1 21.4 20.6 19.5 19.5 17.4
0.1 0.0 0.0 0.1 0.0 0.0 0.0 0.2 0.5 0.1 0.0 0.1 0.1 0.1 0.1 1.4 3.3 4.4 7.3 11.3 12.8 18.6 23.0 22.6 23.9 25.4 20.6 18.0 15.8 16.1 16.2 15.1 12.7 12.7 15.7 18.1 18.4 18.8 20.2 20.2 20.0 20.8 20.6 21.6
1.9 0.8 0.1 0.2 0.2 0.1 0.3 0.5 0.8 0.6 0.3 0.2 0.2 0.2 0.2 0.8 3.1 6.3 11.5 12.9 15.8 18.4 19.5 17.5 18.6 14.4 11.5 10.8 9.6 9.2 10.0 10.0 9.5 9.3 9.6 10.4 13.2 14.9 16.6 16.7 17.6 18.7 20.0 20.3
0.1 0.1 0.1 1.7 2.6 1.6 0.6 0.5 0.7 0.5 0.5 0.4 0.7 1.3 2.1 4.5 8.5 14.3 18.9 19.2 14.0 12.7 14.4 13.9 10.6 8.1 7.2 7.3 6.1 5.7 5.8 5.8 6.9 8.3 7.6 8.4 10.5 11.2 11.1 11.1 12.0 12.5 14.7 15.6
0.2 1.5 1.1 1.5 1.7 1.5 1.5 1.4 1.0 0.8 1.9 2.3 4.0 7.8 9.5 11.9 12.1 11.3 11.0 11.3 12.3 10.5 12.4 7.9 6.2 5.2 4.5 4.6 3.6 4.2 4.3 4.6 4.6 5.1 5.5 5.5 7.0 8.1 10.4 9.5 9.5 10.5 11.6 12.4
1.4 0.9 1.1 0.6 0.3 1.0 1.1 1.3 2.1 3.4 5.6 5.2 6.0 8.0 7.9 9.1 8.0 8.3 7.4 8.1 7.0 6.4 4.3 4.9 4.2 4.2 3.7 2.9 1.7 1.9 2.3 2.6 3.4 4.4 5.3 5.8 7.3 7.9 8.1 6.6 8.5 9.3 9.7 10.7
1.0 0.5 0.6 0.8 1.1 1.8 2.9 4.4 4.2 6.2 9.2 7.5 5.8 7.6 9.4 12.4 11.7 10.2 7.9 4.7 6.0 4.0 3.6 3.2 2.2 2.3 1.4 1.5 1.6 1.8 2.6 3.2 3.6 5.2 5.2 5.6 5.7 5.9 6.0 6.5 7.4 7.1 9.0 9.6
5.5 6.2 5.1 4.9 4.7 6.6 7.8 7.6 6.4 7.3 7.9 9.1 10.1 10.0 10.2 12.4 11.4 9.4 6.7 5.7 5.1 3.8 3.2 2.7 1.8 1.6 1.2 1.3 1.9 2.5 2.5 2.9 2.7 2.8 3.3 4.1 4.7 5.3 5.3 5.6 6.7 6.7 7.1 7.4
11.9 11.8 11.5 10.5 9.4 10.5 11.7 10.8 11.1 9.5 10.6 11.1 10.7 10.7 8.9 9.8 7.8 5.6 5.4 4.2 2.8 2.8 2.4 2.1 1.7 1.6 1.5 2.5 3.3 3.3 3.7 2.7 2.9 3.1 3.7 3.6 4.3 4.9 4.7 4.8 5.6 5.8 6.5 5.8
10.5 10.4 12.8 11.5 10.0 8.2 9.5 12.0 10.7 10.7 10.1 11.5 10.0 9.3 7.4 6.5 6.5 4.7 3.4 3.2 2.8 2.6 2.1 2.5 1.8 1.6 1.9 2.9 3.2 2.8 3.5 2.8 2.5 2.9 2.8 1.9 3.5 2.9 3.3 3.7 3.7 3.5 3.9 3.8
9.1 8.1 7.6 7.9 7.7 9.0 8.3 8.7 7.9 9.5 9.0 10.9 9.8 7.9 5.8 4.2 3.4 4.8 3.2 3.8 2.9 2.2 2.6 2.5 1.5 1.7 2.4 3.2 3.2 2.7 3.3 2.9 2.6 3.4 3.5 3.2 3.0 2.9 3.0 2.7 2.6 2.8 2.4 2.5
9.2 8.9 8.2 7.2 7.5 7.2 6.5 6.4 7.5 9.6 8.3 9.2 8.7 6.9 6.0 5.0 4.7 3.9 3.1 2.5 1.5 1.6 2.7 3.7 2.5 2.1 2.9 2.8 2.9 2.6 2.9 2.7 2.4 2.8 2.9 2.8 2.9 2.8 2.6 2.6 2.2 2.0 2.2 2.0
8.1 7.5 5.5 6.2 6.6 6.5 6.4 6.6 6.4 7.8 7.5 7.1 8.0 6.4 5.6 5.7 5.3 5.0 3.5 3.4 3.1 3.2 3.4 3.6 2.9 2.2 1.8 2.7 3.3 3.0 2.9 2.4 1.2 2.1 2.2 2.7 3.0 3.1 3.1 3.2 3.1 2.8 2.6 3.0